Date,TemperatureHighF,TemperatureAvgF,TemperatureLowF,DewpointHighF,DewpointAvgF,DewpointLowF,HumidityHigh,HumidityAvg,HumidityLow,PressureMaxIn,PressureMinIn,WindSpeedMaxMPH,WindSpeedAvgMPH,GustSpeedMaxMPH,PrecipitationSumIn
2013-3-1,23.7,22.6,20.3,20.0,18.9,15.0,88,85,81,30.31,30.16,13,4,17,0.04
2013-3-2,23.3,17.5,7.2,16.0,12.4,5.0,89,80,72,30.30,30.25,8,2,10,0.00
2013-3-3,26.8,14.6,1.4,14.0,5.4,-1.0,100,70,33,30.25,30.17,8,1,10,0.00
2013-3-4,31.6,20.7,3.8,25.0,15.7,0.0,89,81,67,30.23,30.13,12,4,16,0.01
2013-3-5,30.6,28.2,25.0,27.0,25.0,23.0,95,88,75,30.13,29.95,13,6,21,0.01
2013-3-6,31.8,28.5,25.2,28.0,25.2,23.0,92,87,82,30.37,30.12,8,3,13,0.05
2013-3-7,34.4,26.6,18.6,24.0,20.2,15.0,88,77,59,30.50,30.36,6,2,8,0.05
2013-3-8,39.1,27.3,12.4,29.0,22.0,10.0,93,81,64,30.55,30.37,7,2,13,0.00
2013-3-9,38.7,34.4,29.4,34.0,29.8,24.0,92,83,77,30.37,29.87,9,4,13,0.08
2013-3-10,42.0,37.8,35.7,41.0,34.4,-99.9,100,93,92,29.87,29.67,10,-22,22,0.46
2013-3-11,38.6,33.5,29.6,38.0,32.7,28.0,98,97,92,29.79,29.57,10,3,13,0.05
2013-3-12,31.3,27.9,25.9,27.0,23.7,19.0,93,84,69,30.04,29.79,11,4,16,0.03
2013-3-13,30.1,24.1,18.6,21.0,13.6,10.0,88,66,44,30.37,30.05,13,5,18,0.03
2013-3-14,34.8,26.5,16.1,27.0,18.1,10.0,92,72,47,30.38,30.14,5,1,11,0.00
2013-3-15,36.4,30.8,27.5,32.0,28.4,25.0,100,91,83,30.13,29.88,12,4,17,0.04
2013-3-16,30.4,26.7,22.9,26.0,22.2,19.0,93,83,69,30.20,29.87,14,4,19,0.04
2013-3-17,27.8,23.8,17.5,23.0,16.0,10.0,82,72,65,30.33,30.11,14,5,17,0.00
2013-3-18,32.5,27.6,17.7,31.0,24.5,12.0,94,88,77,30.10,29.63,13,6,23,0.13
2013-3-19,28.7,20.7,12.6,13.0,11.0,8.0,82,67,49,30.11,29.76,17,8,25,0.00
2013-3-20,19.1,14.3,9.4,9.0,4.4,0.0,69,65,59,30.14,30.09,15,6,21,0.00
2013-3-21,26.6,17.5,8.2,15.0,8.6,2.0,78,68,57,30.14,30.09,8,3,16,0.00
2013-3-22,33.1,22.8,12.8,18.0,13.2,8.0,82,68,52,30.16,30.09,5,2,9,0.00
2013-3-23,37.8,27.1,16.6,24.0,19.5,13.0,89,74,50,30.22,30.12,9,2,11,0.00
2013-3-24,33.0,30.4,29.1,29.0,25.7,22.0,93,83,74,30.13,29.82,15,7,21,0.01
2013-3-25,32.6,29.4,25.4,27.0,24.3,21.0,89,81,72,30.16,29.85,13,4,18,0.01
2013-3-26,38.4,33.5,28.7,30.0,26.3,24.0,83,75,66,30.30,30.15,9,3,13,0.00
2013-3-27,41.1,35.2,27.2,26.0,23.3,20.0,78,63,48,30.36,30.30,9,2,13,0.00
2013-3-28,43.5,34.5,26.1,25.0,22.0,20.0,79,62,41,30.40,30.35,7,2,10,0.00
2013-3-29,47.3,35.4,23.1,27.0,22.7,19.0,87,63,35,30.39,30.30,6,1,9,0.00
2013-3-30,53.5,42.8,25.5,41.0,32.2,21.0,90,68,51,30.30,29.86,7,2,13,0.01
2013-3-31,47.6,39.5,31.4,41.0,34.9,21.0,94,84,59,29.93,29.73,10,4,21,0.01